DELTA 1 R/B, 341

Orbit data source: Space-Track

DELTA 1 R/B, 341 is space debris in LEO originally from a launch on Tue, 10 Jul 1962 UTC launched from the Air Force Eastern Test Range (AFETR). Debris objects in space refer to the collection of defunct objects orbiting the Earth. Examples of debris include non-operational satellites, rocket bodies, and fragments generated from explosions, collisions, or faulty payload assembly.

Loading next visibility...
DELTA 1 R/B details
Identifier
341, 1962-029B
Orbit
LEO
Last TLE update19 hours ago
Origin
Flag of USGSFC (US)
ManufacturerABL
MissionSpacecraft
Bus & MotorALTAIR, Unknown motor
Mass24 kg wet, 24 kg dry
Launch date (UTC)
1962-07-10 (63 years ago)
Launch vehicleUnknown
Launch site
Air Force Eastern Test Range (AFETR)
Object type
Payload
Rocket body
Debris
Shape & HBRCyl, 1.5 m
Radar Cross Section0.687 m², Medium (>0.1 m² and < 1m²)

Expand to show TLE details & history

TLE from 19 hours ago
0 DELTA 1 R/B
1 00341U 62029B   25014.65959218  .00000108  00000-0  10112-2 0  9990
2 00341  44.7998 103.5577 2421065 306.5808 222.4873  9.14282749 87693
Epoch: 2025-01-14T15:49Z
Definitive object data (Epoch: 2025-01-14T15:49:48.764Z)
Latitude18.05716°
Longitude-87.3593°
Altitude5,206.847 km
Speed5.251 km/s
True Right ascension17h 37m 49s
True Declination17° 59' 42"
Sunlit
Object was in daylight at TLE epoch
Visualization TLE readout
Latitude-24.4793°
Longitude-42.5651°
Altitude2,813.654 km
Speed6.747 km/s
Apparent Right ascension21h 37m 48s
Apparent Declination-32° 15' 52"
Sunlit
Object is in daylight
Visualization observer readout
Local Sidereal Time11:24:15
Azimuth78.704° E
Elevation-67.277°
Doppler factor1
Orbital elements
Apogee altitude5,623.243 km
Perigee altitude944.72 km
Semi-major axis9,662.119 km
Eccentricity0.2421065
Inclination44.7998°
RAAN103.5577°
Arg. of periapsis306.5808°
True anomaly207.35527°
Mean anomaly222.4873°
Eccentric anomaly214.60863°
Mean motion2.28525 °/min
BSTAR0.0010112
Orbital period157.53 mins
Loading maneuver chart data...
Loading historical data...
Loading historical data...
Loading historical data...
Loading historical data...
Loading historical data...
Loading historical data...
Loading historical data...
Other satellites on launch #29 in the year 1962 (1962-07-10 UTC)

DELTA 1 R/B Visibility forecast

Observer location: undefined°, undefined

Span
Click to sort rows by Start time (UTC) header in descending order
Start Az.
Max El. time (UTC)
Max El. Az.
Max El.
End time (UTC)
End Az.
58 mins2025-01-15 11:44:10.473Z272.177° WNW2025-01-15 12:05:10.473Z353.589° N44.425°2025-01-15 12:42:10.473Z91.955° ESE
62 mins2025-01-15 14:35:10.473Z293.667° NW2025-01-15 15:04:10.473Z218.876° SW44.678°2025-01-15 15:37:10.473Z132.045° SE
52 mins2025-01-15 17:29:10.473Z295.449° NW2025-01-15 17:57:10.473Z240.296° WSW32.288°2025-01-15 18:21:10.473Z182.318° SSW
19 mins2025-01-16 05:55:10.473Z147.394° SSE2025-01-16 06:02:10.473Z109.685° ESE19.992°2025-01-16 06:14:10.473Z71.439° E
41 mins2025-01-16 08:34:10.473Z224.676° SW2025-01-16 08:46:10.473Z151.507° SSE43.968°2025-01-16 09:15:10.473Z65.069° ENE
|